Location: São Paulo
(23.5507°S, 46.6334°W)
Time: 08:51:38
(UTC-03:00)

Hubble Space Telescope - Pass Details

Date: 02 August 2021
Orbit: 535 x 539 km, 28.5° (Epoch: 24 September)

Event Time Altitude Azimuth Distance (km) Brightness Sun altitude
Exits shadow 05:39:40 23° 235° (SW) 1,185 2.0 -14.3°
Maximum altitude 05:41:49 41° 178° (S) 792 1.5 -13.8°
Drops below altitude 10° 05:45:45 10° 107° (ESE) 1,795 4.4 -13.0°
Sets 05:48:07 0° 99° (E) 2,686 5.7 -12.4°
